Погода в Паранаке

Филиппины     14°28′14″N   121°01′18″E
темп.,
°C
ветер,
м/с
пор.,
м/с
влажн.,
%
обл.,
%
осадки,
мм/ч
давл.,
гПа
погр.,
м
18 августа, чт
чт1823:00+26зюз3584100 4.8 1010240
02:00+26зюз3485100 11.2 1008153
05:00+25ссз1288100 4.8 1009131
08:00+25ююз1290100 7.6 1010266
11:00+25юв1190100 0.8 1010283
14:00+25в1189100 1.5 1008320
17:00+25св1191100 1.3 1008222
20:00+25ссв2289100 1.4 1010179
19 августа, пт
пт1923:00+24юз0090100 0.4 1011125
02:00+24всв1190100 0.9 1009163
05:00+25всв1186100 0.0 1008171
08:00+25св1182100 0.0 1010242
11:00+27ссв1176100 0.1 1009416
14:00+28ссз1171100 0.1 1008526
17:00+28с2271100 0.0 1007480
20:00+27с1177100 0.0 1009209
20 августа, сб
сб2023:00+27в2279100 0.0 1010197
02:00+26юв2387100 1.8 1009165
05:00+26вюв2386100 0.3 1008184
08:00+27вюв3380100 0.3 1009362
11:00+30юв356784 0.0 1009806
14:00+32юв345992 0.1 1006799
17:00+29ю237588 2.6 1007175
20:00+28ююз2377100 5.6 1009161
21 августа, вс
вс2123:00+27ю228350 2.5 101086
02:00+26в118486 3.5 1008134
05:00+26ссв118635 0.0 1008151
08:00+27вюв11805 0.0 1009384
11:00+30ссз016995 0.0 1009723
14:00+31зсз426150 0.1 1006817
17:00+30зюз336798 0.2 1006452
20:00+28юз3480100 2.9 1008158
22 августа, пн
пн2223:00+27сз3480100 5.2 1009172
02:00+26с4585100 5.7 1008250
05:00+26ссз348335 0.0 1007207
08:00+27ссз3377100 0.0 1009370
11:00+29зсз336821 0.0 1008710
14:00+30з4465100 0.1 1006788
17:00+29зюз446820 0.1 1007638
20:00+28зсз1275100 1.1 1008166